timestamp,surface_pressure_avg,surface_temp_avg,battery_voltage,lat,long
2022-01-14 00:09:00+00:00,265.0531,3.1,12.57,47.84626,-54.09684
2022-01-14 00:19:00+00:00,266.813,3.1,12.49,47.84626,-54.09684
2022-01-14 00:29:00+00:00,260.428,3.1,12.49,47.84626,-54.09684
2022-01-14 00:39:00+00:00,249.3614,3.1,12.49,47.84626,-54.09684
2022-01-14 00:49:00+00:00,245.8464,3.1,12.49,47.84626,-54.09684
2022-01-14 00:59:00+00:00,242.3798,3.1,12.49,47.84626,-54.09684
2022-01-14 01:09:00+00:00,235.1397,3.1,12.49,47.84626,-54.09684
2022-01-14 01:19:00+00:00,228.5031,3.1,12.49,47.84626,-54.09684
2022-01-14 01:29:00+00:00,230.0831,3.1,12.49,47.84626,-54.09684
2022-01-14 01:39:00+00:00,230.0331,3.1,12.49,47.84626,-54.09684
2022-01-14 01:49:00+00:00,223.6164,3.1,12.49,47.84626,-54.09684
2022-01-14 01:59:00+00:00,220.7881,3.1,12.49,47.84626,-54.09684
2022-01-14 02:09:00+00:00,222.1764,3.1,12.49,47.84626,-54.09684
2022-01-14 02:19:00+00:00,220.7765,3.1,12.49,47.84626,-54.09684
2022-01-14 02:29:00+00:00,217.5431,3.1,12.49,47.84626,-54.09684
2022-01-14 02:39:00+00:00,217.2531,3.1,12.49,47.84626,-54.09684
2022-01-14 02:49:00+00:00,213.3714,3.1,12.49,47.84626,-54.09684
2022-01-14 02:59:00+00:00,211.7198,3.1,12.49,47.84626,-54.09684
2022-01-14 03:09:00+00:00,220.7747,3.1,12.49,47.84626,-54.09684
2022-01-14 03:19:00+00:00,228.3098,3.1,12.49,47.84626,-54.09684
2022-01-14 03:29:00+00:00,226.6781,3.1,12.49,47.84626,-54.09684
2022-01-14 03:39:00+00:00,227.5598,3.1,12.49,47.84626,-54.09684
2022-01-14 03:49:00+00:00,234.4115,3.1,12.49,47.84626,-54.09684
2022-01-14 03:59:00+00:00,233.3381,3.1,12.49,47.84626,-54.09684
2022-01-14 04:09:00+00:00,226.3398,3.07,12.49,47.84626,-54.09684
2022-01-14 04:19:00+00:00,229.4864,3.0,12.49,47.84626,-54.09684
2022-01-14 04:29:00+00:00,240.0164,3.0,12.49,47.84626,-54.09684
2022-01-14 04:39:00+00:00,243.6631,3.0,12.49,47.84626,-54.09684
2022-01-14 04:49:00+00:00,246.2781,3.0,12.49,47.84626,-54.09684
2022-01-14 04:59:00+00:00,252.6731,2.99,12.49,47.84626,-54.09684
2022-01-14 05:09:00+00:00,257.6365,2.99,12.49,47.84626,-54.09684
2022-01-14 05:19:00+00:00,257.8731,2.97,12.49,47.84626,-54.09684
2022-01-14 05:29:00+00:00,260.8481,2.96,12.49,47.84626,-54.09684
2022-01-14 05:39:00+00:00,266.6481,2.9,12.49,47.84626,-54.09684
2022-01-14 05:49:00+00:00,269.8648,2.9,12.49,47.84626,-54.09684
2022-01-14 05:59:00+00:00,273.9748,2.8,12.49,47.84626,-54.09684
2022-01-14 06:09:00+00:00,275.363,2.69,12.49,47.84626,-54.09684
2022-01-14 06:19:00+00:00,276.0464,2.4,12.49,47.84626,-54.09684
2022-01-14 06:29:00+00:00,280.713,2.71,12.49,47.84626,-54.09684
2022-01-14 06:39:00+00:00,293.5714,2.8,12.49,47.84626,-54.09684
2022-01-14 06:49:00+00:00,299.7297,2.83,12.49,47.84626,-54.09684
2022-01-14 06:59:00+00:00,302.2247,2.8,12.49,47.84626,-54.09684
2022-01-14 07:09:00+00:00,312.1397,2.8,12.49,47.84626,-54.09684
2022-01-14 07:19:00+00:00,323.3646,2.8,12.49,47.84626,-54.09684
2022-01-14 07:29:00+00:00,319.58299999999997,2.8,12.49,47.84626,-54.09684
2022-01-14 07:39:00+00:00,315.5364,2.8,12.49,47.84626,-54.09684
2022-01-14 07:49:00+00:00,324.0297,2.75,12.49,47.84626,-54.09684
2022-01-14 07:59:00+00:00,336.17800000000005,2.8,12.49,47.84626,-54.09684
2022-01-14 08:09:00+00:00,327.8746,2.79,12.49,47.84626,-54.09684
2022-01-14 08:19:00+00:00,325.7963,2.7,12.49,47.84626,-54.09684
2022-01-14 08:29:00+00:00,337.1063,2.79,12.49,47.84626,-54.09684
2022-01-14 08:39:00+00:00,339.658,2.8,12.49,47.84626,-54.09684
2022-01-14 08:49:00+00:00,332.8597,2.84,12.49,47.84626,-54.09684
2022-01-14 08:59:00+00:00,331.4396,2.9,12.49,47.84626,-54.09684
2022-01-14 09:09:00+00:00,339.4263,2.9,12.49,47.84626,-54.09684
2022-01-14 09:19:00+00:00,339.1880000000001,2.9,12.41,47.84626,-54.09684
2022-01-14 09:29:00+00:00,333.3646,2.9,12.41,47.84626,-54.09684
2022-01-14 09:39:00+00:00,336.0963,2.9,12.41,47.84626,-54.09684
2022-01-14 09:49:00+00:00,342.8130000000001,2.9,12.41,47.84626,-54.09684
2022-01-14 09:59:00+00:00,340.5197,2.9,12.41,47.84626,-54.09684
2022-01-14 10:09:00+00:00,337.2797,2.9,12.41,47.84626,-54.09684
2022-01-14 10:19:00+00:00,335.3279,2.92,12.41,47.84626,-54.09684
2022-01-14 10:29:00+00:00,332.1647,2.94,12.41,47.84626,-54.09684
2022-01-14 10:39:00+00:00,332.2629,2.95,12.41,47.84626,-54.09684
2022-01-14 10:49:00+00:00,333.4896,2.9,12.41,47.84626,-54.09684
2022-01-14 10:59:00+00:00,326.8996,2.9,12.41,47.84626,-54.09684
2022-01-14 11:09:00+00:00,327.3713,2.9,12.41,47.84626,-54.09684
2022-01-14 11:19:01+00:00,328.4613,2.9,12.41,47.84626,-54.09684
2022-01-14 11:29:01+00:00,319.9963,2.9,12.41,47.84626,-54.09684
2022-01-14 11:39:01+00:00,311.2064,2.9,12.41,47.84626,-54.09684
2022-01-14 11:49:01+00:00,313.323,2.9,12.41,47.84626,-54.09684
2022-01-14 11:59:01+00:00,310.3914,2.9,12.41,47.84626,-54.09684
2022-01-14 12:09:01+00:00,298.9947,2.9,12.41,47.84626,-54.09684
2022-01-14 12:19:00+00:00,290.8331,2.9,12.41,47.84626,-54.09684
2022-01-14 12:29:00+00:00,288.3547,2.9,12.41,47.84626,-54.09684
2022-01-14 12:39:00+00:00,278.5347,2.92,12.41,47.84626,-54.09684
2022-01-14 12:49:00+00:00,269.4997,2.9,12.41,47.84626,-54.09684
2022-01-14 12:59:00+00:00,268.0298,2.9,12.41,47.84626,-54.09684
2022-01-14 13:09:00+00:00,266.9381,2.92,12.41,47.84626,-54.09684
2022-01-14 13:19:00+00:00,256.8481,2.9,12.41,47.84626,-54.09684
2022-01-14 13:29:00+00:00,252.1397,2.9,12.41,47.84626,-54.09684
2022-01-14 13:39:00+00:00,257.1681,2.9,12.41,47.84626,-54.09684
2022-01-14 13:49:00+00:00,252.2864,2.9,12.41,47.84626,-54.09684
2022-01-14 13:59:00+00:00,243.2647,2.7,12.41,47.84626,-54.09684
2022-01-14 14:09:00+00:00,242.3014,2.69,12.41,47.84626,-54.09684
2022-01-14 14:19:00+00:00,243.6847,2.8,12.49,47.84626,-54.09684
2022-01-14 14:29:00+00:00,235.3648,2.7,12.49,47.84626,-54.09684
2022-01-14 14:39:00+00:00,229.3398,2.5,12.49,47.84626,-54.09684
2022-01-14 14:49:00+00:00,233.9898,2.48,12.49,47.84626,-54.09684
2022-01-14 14:59:00+00:00,233.8214,2.5,12.49,47.84626,-54.09684
2022-01-14 15:09:00+00:00,223.6715,2.5,12.49,47.84626,-54.09684
2022-01-14 15:19:01+00:00,223.1348,2.41,12.49,47.84626,-54.09684
2022-01-14 15:29:01+00:00,233.1564,2.55,12.49,47.84626,-54.09684
2022-01-14 15:39:01+00:00,234.9697,2.7,12.49,47.84626,-54.09684
2022-01-14 15:49:01+00:00,226.8148,2.6,12.49,47.84626,-54.09684
2022-01-14 15:59:01+00:00,225.7798,2.68,12.49,47.84626,-54.09684
2022-01-14 16:09:01+00:00,232.1248,2.8,12.49,47.84626,-54.09684
2022-01-14 16:19:00+00:00,234.9098,2.9,12.49,47.84626,-54.09684
2022-01-14 16:29:00+00:00,229.6664,2.89,12.49,47.84626,-54.09684
2022-01-14 16:39:00+00:00,226.0164,2.8,12.49,47.84626,-54.09684
2022-01-14 16:49:00+00:00,231.8864,2.79,12.49,47.84626,-54.09684
2022-01-14 16:59:00+00:00,235.8114,2.8,12.49,47.84626,-54.09684
2022-01-14 17:09:00+00:00,232.5748,2.8,12.49,47.84626,-54.09684
2022-01-14 17:19:00+00:00,231.6048,2.78,12.41,47.84626,-54.09684
2022-01-14 17:29:00+00:00,236.5948,2.75,12.41,47.84626,-54.09684
2022-01-14 17:39:00+00:00,236.8448,2.79,12.41,47.84626,-54.09684
2022-01-14 17:49:00+00:00,238.4081,2.8,12.41,47.84626,-54.09684
2022-01-14 17:59:00+00:00,244.1981,2.8,12.41,47.84626,-54.09684
2022-01-14 18:09:00+00:00,246.8481,2.8,12.41,47.84626,-54.09684
2022-01-14 18:19:01+00:00,248.5064,2.8,12.49,47.84626,-54.09684
2022-01-14 18:29:01+00:00,253.6931,2.87,12.49,47.84626,-54.09684
2022-01-14 18:39:01+00:00,257.4081,2.89,12.49,47.84626,-54.09684
2022-01-14 18:49:01+00:00,257.7598,2.85,12.49,47.84626,-54.09684
2022-01-14 18:59:01+00:00,263.0714,2.86,12.49,47.84626,-54.09684
2022-01-14 19:09:01+00:00,270.4681,2.9,12.49,47.84626,-54.09684
2022-01-14 19:19:00+00:00,276.5164,2.95,12.41,47.84626,-54.09684
2022-01-14 19:29:00+00:00,279.8731,2.9,12.41,47.84626,-54.09684
2022-01-14 19:39:00+00:00,286.5748,2.9,12.41,47.84626,-54.09684
2022-01-14 19:49:00+00:00,291.608,2.97,12.41,47.84626,-54.09684
2022-01-14 19:59:00+00:00,294.753,3.06,12.41,47.84626,-54.09684
2022-01-14 20:09:00+00:00,296.6581,3.04,12.41,47.84626,-54.09684
2022-01-14 20:19:00+00:00,304.173,3.0,12.41,47.84626,-54.09684
2022-01-14 20:29:00+00:00,311.8896,3.04,12.41,47.84626,-54.09684
2022-01-14 20:39:00+00:00,312.4347,3.1,12.41,47.84626,-54.09684
2022-01-14 20:49:00+00:00,311.3547,3.1,12.41,47.84626,-54.09684
2022-01-14 20:59:00+00:00,316.4513,3.08,12.41,47.84626,-54.09684
2022-01-14 21:09:00+00:00,321.1147,3.1,12.41,47.84626,-54.09684
2022-01-14 21:19:00+00:00,320.9696,3.1,12.41,47.84626,-54.09684
2022-01-14 21:29:00+00:00,318.8281,3.09,12.41,47.84626,-54.09684
2022-01-14 21:39:00+00:00,324.4813,3.09,12.41,47.84626,-54.09684
2022-01-14 21:49:00+00:00,327.403,3.1,12.41,47.84626,-54.09684
2022-01-14 21:59:00+00:00,321.83799999999997,3.1,12.41,47.84626,-54.09684
2022-01-14 22:09:00+00:00,318.1431,3.1,12.41,47.84626,-54.09684
2022-01-14 22:19:00+00:00,323.2247,3.1,12.41,47.84626,-54.09684
2022-01-14 22:29:00+00:00,326.1296,3.1,12.41,47.84626,-54.09684
2022-01-14 22:39:00+00:00,320.9664,3.1,12.41,47.84626,-54.09684
2022-01-14 22:49:00+00:00,319.5563,3.1,12.41,47.84626,-54.09684
2022-01-14 22:59:00+00:00,323.4197,3.1,12.41,47.84626,-54.09684
2022-01-14 23:09:00+00:00,317.5313,3.1,12.41,47.84626,-54.09684
2022-01-14 23:19:00+00:00,308.8714,3.1,12.41,47.84626,-54.09684
2022-01-14 23:29:00+00:00,309.2763,3.1,12.41,47.84626,-54.09684
2022-01-14 23:39:00+00:00,310.5846,3.1,12.41,47.84626,-54.09684
2022-01-14 23:49:00+00:00,302.0047,3.1,12.41,47.84626,-54.09684
2022-01-14 23:59:00+00:00,296.538,3.1,12.41,47.84626,-54.09684
